WetterOnline ( https://www.wetteronline.de )

Wetter aktuell Navis

Aktuelles Wetter: Garmisch-Partenkirchen (719m)

6-stündlich | Neueste Meldungen
Ortszeit Temperatur Wetter
Mi, 13.11. 1:00 0.4° C Schneefall
Di, 12.11. 19:00 2.3° C leichter Regen
Di, 12.11. 13:00 4.0° C bedeckt
Di, 12.11. 7:00 0.4° C leichter Regen
Di, 12.11. 1:00 0.4° C leichter Regen
Mo, 11.11. 19:00 1.0° C bedeckt
Mo, 11.11. 13:00 5.1° C leicht bewölkt
Mo, 11.11. 7:00 -4.8° C wolkenlos
Ortszeit Temperatur Wetter
Mi, 13.11. 6:00 0.3° C leichter Schneefall
Mi, 13.11. 5:50 0.3° C leichter Schneefall
Mi, 13.11. 5:40 0.3° C Schneefall
Mi, 13.11. 5:30 0.3° C Schneefall
Mi, 13.11. 5:20 0.3° C Schneefall
Mi, 13.11. 5:10 0.3° C Schneefall
Mi, 13.11. 5:00 0.3° C Schneefall
Mi, 13.11. 4:30 0.3° C Schneefall
Mi, 13.11. 4:00 0.3° C starker Schneefall
Mi, 13.11. 3:30 0.3° C Schneefall
Mi, 13.11. 3:00 0.3° C Schneefall
Ortszeit Relative Feuchte Sichtweite
Mi, 13.11. 1:00 98% 3.0 km
Di, 12.11. 19:00 96% 30 km
Di, 12.11. 13:00 88% >70 km
Di, 12.11. 7:00 98% 8 km
Di, 12.11. 1:00 93% 19 km
Mo, 11.11. 19:00 90% 30 km
Mo, 11.11. 13:00 61% >70 km
Mo, 11.11. 7:00 91% >70 km
Ortszeit Relative Feuchte Sichtweite
Mi, 13.11. 6:00 97% 2.9 km
Mi, 13.11. 5:50 97% -
Mi, 13.11. 5:40 98% -
Mi, 13.11. 5:30 98% 1.9 km
Mi, 13.11. 5:20 98% -
Mi, 13.11. 5:10 98% -
Mi, 13.11. 5:00 98% 1.5 km
Mi, 13.11. 4:30 97% 1.2 km
Mi, 13.11. 4:00 98% 1.4 km
Mi, 13.11. 3:30 98% 1.7 km
Mi, 13.11. 3:00 97% 1.5 km
Ortszeit Niederschlagsmenge Niederschlagsart
Mi, 13.11. 1:00 5 l/m2 in 6 Std. Schnee, Regen
Di, 12.11. 19:00 1 l/m2 in 12 Std. Regen
Di, 12.11. 13:00 0.8 l/m2 in 6 Std. Regen
Di, 12.11. 7:00 6 l/m2 in 12 Std. Schnee, Regen
Di, 12.11. 1:00 0.1 l/m2 in 6 Std. Regen
Mo, 11.11. 19:00 0.0 l/m2 in 12 Std. -
Mo, 11.11. 13:00 0.0 l/m2 in 6 Std. -
Mo, 11.11. 7:00 0.0 l/m2 in 12 Std. -
Ortszeit Niederschlagsmenge Niederschlagsart
Mi, 13.11. 6:00 1.5 l/m2 in 1 Std. Schnee
Mi, 13.11. 5:50 keine Meldung -
Mi, 13.11. 5:40 keine Meldung -
Mi, 13.11. 5:30 0.9 l/m2 in 1 Std. -
Mi, 13.11. 5:20 keine Meldung -
Mi, 13.11. 5:10 keine Meldung -
Mi, 13.11. 5:00 2.2 l/m2 in 1 Std. Schnee
Mi, 13.11. 4:30 1.1 l/m2 in 1 Std. -
Mi, 13.11. 4:00 1.7 l/m2 in 1 Std. Schnee
Mi, 13.11. 3:30 0.9 l/m2 in 1 Std. -
Mi, 13.11. 3:00 2.1 l/m2 in 1 Std. Schnee
Ortszeit Stärke Spitze Richtung
km/h Bft. km/h Grad Sektor
Mi, 13.11. 1:00 2 1 9 180° S
Di, 12.11. 19:00 4 1 7 90° O
Di, 12.11. 13:00 0 0 7 - -
Di, 12.11. 7:00 4 1 11 220° SW
Di, 12.11. 1:00 4 1 11 240° SW
Mo, 11.11. 19:00 0 0 18 - -
Mo, 11.11. 13:00 4 1 11 60° NO
Mo, 11.11. 7:00 4 1 11 240° SW
Ortszeit Stärke Spitze Richtung
km/h Bft. km/h Grad Sektor
Mi, 13.11. 6:00 0 0 4 - -
Mi, 13.11. 5:50 2 1 - 240° SW
Mi, 13.11. 5:40 0 0 - 200° S
Mi, 13.11. 5:30 0 0 4 - -
Mi, 13.11. 5:20 0 0 - 260° W
Mi, 13.11. 5:10 0 0 - 180° S
Mi, 13.11. 5:00 0 0 4 - -
Mi, 13.11. 4:30 0 0 0 - -
Mi, 13.11. 4:00 0 0 4 - -
Mi, 13.11. 3:30 0 0 4 - -
Mi, 13.11. 3:00 0 0 4 - -
Ortszeit Untergrenze Bedeckung Gattung
total tief tief mittel hoch
Mi, 13.11. 1:00 180 m 8/8 8/8 - - -
Di, 12.11. 19:00 1470 m 8/8 8/8 - - -
Di, 12.11. 13:00 2100 m 8/8 8/8 - - -
Di, 12.11. 7:00 630 m 8/8 8/8 - - -
Di, 12.11. 1:00 1140 m 7/8 7/8 - - -
Mo, 11.11. 19:00 3000 m 8/8 8/8 - - -
Mo, 11.11. 13:00 4200 m 4/8 4/8 - - -
Mo, 11.11. 7:00 - 0/8 0/8 - - -
Ortszeit Bedeckungsgrad in Achtel und Wolkenuntergrenze
Mi, 13.11. 6:00 1(180m) 7(390m) 7(570m)
Mi, 13.11. 5:50 1(180m) 7(390m) 7(570m)
Mi, 13.11. 5:40 2(240m) 7(390m) 8(540m)
Mi, 13.11. 5:30 4(210m) 8(330m) 8(570m)
Mi, 13.11. 5:20 4(210m) 8(330m)
Mi, 13.11. 5:10 6(210m) 8(300m)
Mi, 13.11. 5:00 8(210m) 8(300m)
Mi, 13.11. 4:30 7(180m)
Mi, 13.11. 4:00 5(90m) 8(270m)
Mi, 13.11. 3:30 2(60m) 8(240m)
Mi, 13.11. 3:00 7(60m) 8(240m)
Ortszeit Luftdruck NN (hPa) Tendenz (hPa in 3 Std.)
Mi, 13.11. 1:00 1006 - 1,3
Di, 12.11. 19:00 1008 - 0,5
Di, 12.11. 13:00 1009 - 2,0
Di, 12.11. 7:00 1012 + 0,1
Di, 12.11. 1:00 1012 + 0,9
Mo, 11.11. 19:00 1010 + 0,4
Mo, 11.11. 13:00 1009 - 3,7
Mo, 11.11. 7:00 1018 - 1,0
Ortszeit Luftdruck NN (hPa) Tendenz (hPa in 3 Std.)
Mi, 13.11. 6:00 1006 0,0
Mi, 13.11. 5:50 1006 keine Meldung
Mi, 13.11. 5:40 1006 keine Meldung
Mi, 13.11. 5:30 1006 0,0
Mi, 13.11. 5:20 1006 keine Meldung
Mi, 13.11. 5:10 1006 keine Meldung
Mi, 13.11. 5:00 1006 - 0,3
Mi, 13.11. 4:30 1006 0,0
Mi, 13.11. 4:00 1006 - 0,3
Mi, 13.11. 3:30 1006 - 1,4
Mi, 13.11. 3:00 1006 - 1,7
Ortszeit Schneehöhe (cm)
Mi, 13.11. 1:00 0
Di, 12.11. 19:00 0
Di, 12.11. 13:00 0
Di, 12.11. 7:00 0
Di, 12.11. 1:00 0
Mo, 11.11. 19:00 0
Mo, 11.11. 13:00 0
Mo, 11.11. 7:00 0
Ortszeit Schneehöhe (cm)
Mi, 13.11. 6:00 5
Mi, 13.11. 5:50 5
Mi, 13.11. 5:40 5
Mi, 13.11. 5:30 5
Mi, 13.11. 5:20 5
Mi, 13.11. 5:10 5
Mi, 13.11. 5:00 5
Mi, 13.11. 4:30 4
Mi, 13.11. 4:00 3
Mi, 13.11. 3:30 3
Mi, 13.11. 3:00 2
Link zu dieser Seite / Seite empfehlen

Das Wetter in ...